Find Starlink 30972

NORAD ID: 58721 Int'l Des: 2024-002 Owner: SPXS Country: US Constellation: starlink operational
LEOCIRCULAR

リアルタイム位置

3D地球を読み込み中...

Starlink 30972について

説明を読み込み中...

次回通過

Passes for default location (London). Set your location on the main map for personalized predictions.

高度履歴

Loading altitude history...

軌道要素

1 58721U 24002S 26121.90163501 -.00001427 00000-0 -36074-4 0 9998
2 58721 53.1621 342.6755 0000935 95.1471 264.9636 15.30199148130167
Epoch: May 1, 2026 • Age: 9 hours

現在のステータス

高度 493.4 km
速度 7.62 km/s
衛星直下点 -50.69°S, 45.57°W
打ち上げ日 Jan 3, 2024
運用期間 2.3 years
タイプ internet

技術仕様

分類 Payload
質量 730.00 kg
乾燥質量 700.00 kg
総質量 730.00 kg
長さ 0.30 m
直径 4.10 m
スパン 29.00 m
形状 Box + pan
製造者 SPXS
バスタイプ Starlink V2M
フェーズステータス In Orbit
所有者/国 SPXS/US

Most Searched